Flag for Moldova Weather past 2 weeks in Cahul, Moldova

Now
35 °F

Overcast.


Feels Like: 30 °F
Forecast: 30 / 42 °F
Wind: 6 mph from North

Location: Galati

Current Time: Oct 26, 2014 at 12:19:51 AM

Latest Report: Oct 25, 2014 at 11:00 PM


Visibility: 6 mi

Pressure: 30.41 "Hg

Humidity: 78%

Dew point: 29 °F

Location of CahulLocation

Historic Weather in Cahul — Graph

°F

Cahul temperature yesterday

Maximum temperature yesterday: 38 °F (at 5:00 PM)
Minimum temperature yesterday: 31 °F (at 10:00 AM)
Average temperature yesterday: 34 °F

Past Weeks' High & Low Weather Summary

 TemperatureHumidityPressure
High75 °F (Oct 21, 4:00 PM)100% (Oct 11, 2:00 AM)30.46 "Hg (Oct 11, 2:00 AM)
Low31 °F (Oct 25, 10:00 AM)35% (Oct 19, 3:00 PM)29.60 "Hg (Oct 23, 5:00 AM)
Average55 °F82%30.01 "Hg
* Reported Oct 10 11:00 PM — Oct 25 11:00 PM, Cahul, Weather by CustomWeather, © 2014

Note: Actual official high and low records may vary slightly from our data, if they occured in-between our weather recording intervals... More about our weather records

Advertising

Cahul weather history for previous 24 hours

 ConditionsComfort  
Time TempWeatherWind HumidityBarometerVisibility
11:00 PM
Oct 25
35 °FOvercast.6 mph78%30.41 "Hg6 mi
10:00 PM36 °FOvercast.7 mph79%30.40 "Hg6 mi
9:00 PM36 °FOvercast.7 mph77%30.40 "Hg6 mi
8:00 PM37 °FOvercast.5 mph75%30.41 "Hg6 mi
7:00 PM37 °FOvercast.6 mph75%30.37 "Hg6 mi
6:00 PM38 °FOvercast.6 mph73%30.36 "Hg6 mi
5:00 PM38 °FOvercast.6 mph72%30.35 "Hg6 mi
4:00 PM38 °FOvercast.7 mph71%30.35 "Hg6 mi
3:00 PM37 °FOvercast.6 mph71%30.36 "Hg6 mi
2:00 PM35 °FOvercast.8 mph76%30.36 "Hg6 mi
1:00 PM33 °FOvercast.8 mph79%30.37 "Hg6 mi
12:00 PM32 °FOvercast.7 mph81%30.37 "Hg6 mi
11:00 AM31 °FOvercast.6 mph83%30.38 "Hg6 mi
10:00 AM31 °FOvercast.6 mph83%30.37 "Hg6 mi
9:00 AM31 °FOvercast.8 mph85%30.35 "Hg6 mi
8:00 AM31 °FOvercast.7 mph87%30.34 "Hg6 mi
7:00 AM32 °FOvercast.6 mph89%30.34 "Hg6 mi
6:00 AM32 °FOvercast.6 mph94%30.33 "Hg6 mi
5:00 AM31 °FLight freezing rain. Overcast.7 mph100%30.32 "Hg2 mi
4:00 AM32 °FDrizzle. Overcast.7 mph100%30.32 "Hg2 mi
3:00 AM32 °FDrizzle. Overcast.6 mph99%30.34 "Hg2 mi
2:00 AM33 °FOvercast.7 mph96%30.35 "Hg6 mi
1:00 AM33 °FOvercast.6 mph95%30.33 "Hg6 mi
12:00 AM33 °FOvercast.7 mph95%30.33 "Hg6 mi
Weather by CustomWeather, © 2014

See weather overviewHow to use our weather pages